DW4982 El Papiol ES current weather conditions

sailwx.info

Wind from 304 at 5 knots gusting 12

Air temperature 20.0° C
Dewpoint 9.8° C

Last reported at 2020-Sep-26 17:55 UTC.
Time now 2020-Sep-26 18:32 UTC

Location: N 41°26' E 002°00'.
View on Google Maps.

See reports from other nearby stations

  
Tides and Currents Weather Stations Pressure Air Temp Water Temp Dewpoint Dewpoint Depression Visibility Wind Speed Wind Dir Waves Ship Positions
date/time (UTC)wind fromknots sea level pressurealtimeterstation pressurevisibilityair tempwater tempwave heightnotes
2020-Sep-26 17:55 304 5 gusting 12 20.0
2020-Sep-26 17:50 272 4 gusting 17 20.0
2020-Sep-26 17:45 273 6 gusting 17 20.0
2020-Sep-26 17:40 288 6 gusting 13 20.0
2020-Sep-26 17:35 281 9 gusting 15 20.0
2020-Sep-26 17:30 288 6 gusting 15 20.6
2020-Sep-26 17:25 311 7 gusting 13 20.6
2020-Sep-26 17:20 270 5 gusting 12 20.6
2020-Sep-26 17:15 259 6 gusting 12 21.1
2020-Sep-26 17:10 320 8 gusting 13 21.1
2020-Sep-26 17:05 340 5 gusting 16 21.1
2020-Sep-26 17:00 309 8 gusting 18 21.1
2020-Sep-26 16:55 333 13 gusting 18 21.7
2020-Sep-26 16:50 319 10 gusting 19 21.7
2020-Sep-26 16:45 305 13 gusting 22 22.2
2020-Sep-26 16:40 282 15 gusting 22 22.2
2020-Sep-26 16:35 298 12 gusting 19 22.2
2020-Sep-26 16:30 336 13 gusting 16 22.2
2020-Sep-26 16:25 337 6 gusting 12 22.2
2020-Sep-26 16:20 309 6 gusting 13 22.2
2020-Sep-26 16:15 317 7 gusting 17 22.2
2020-Sep-26 16:10 271 13 gusting 17 22.2
2020-Sep-26 16:05 303 11 gusting 17 22.8
2020-Sep-26 16:00 289 7 gusting 15 22.8
2020-Sep-26 15:55 254 4 gusting 8 22.8
2020-Sep-26 15:50 222 1 gusting 11 22.2
2020-Sep-26 15:45 213 2 gusting 14 21.7
2020-Sep-26 15:35 121 5 gusting 10 21.7
2020-Sep-26 15:30 190 2 gusting 12 21.1
2020-Sep-26 15:25 180 9 gusting 16 21.1
2020-Sep-26 15:20 163 6 gusting 16 20.6
2020-Sep-26 15:15 165 10 gusting 17 20.6
2020-Sep-26 15:10 141 8 gusting 18 20.6
2020-Sep-26 15:05 180 12 gusting 18 20.6
2020-Sep-26 15:00 167 9 gusting 19 20.6
2020-Sep-26 14:55 169 13 gusting 19 20.0
2020-Sep-26 14:50 155 10 gusting 17 20.0
2020-Sep-26 14:45 078 10 gusting 17 19.4
2020-Sep-26 14:40 159 10 gusting 16 19.4
2020-Sep-26 14:35 167 9 gusting 16 20.0
2020-Sep-26 14:30 132 8 gusting 19 20.0
2020-Sep-26 14:20 178 9 gusting 18 19.4
2020-Sep-26 14:15 167 13 gusting 18 19.4
2020-Sep-26 14:10 166 8 gusting 18 19.4
2020-Sep-26 14:05 142 11 gusting 18 19.4
2020-Sep-26 14:00 165 11 gusting 17 19.4
2020-Sep-26 13:55 157 11 gusting 17 19.4
2020-Sep-26 13:50 161 10 gusting 16 19.4
2020-Sep-26 13:45 192 13 gusting 17 19.4
2020-Sep-26 13:40 167 10 gusting 17 19.4
2020-Sep-26 13:35 135 11 gusting 17 19.4
2020-Sep-26 13:30 150 13 gusting 17 18.9
2020-Sep-26 13:25 146 10 gusting 17 18.9
2020-Sep-26 13:20 163 9 gusting 17 19.4
2020-Sep-26 13:15 239 10 gusting 16 18.9
2020-Sep-26 13:10 158 9 gusting 13 19.4
2020-Sep-26 13:05 187 6 gusting 15 19.4
2020-Sep-26 13:00 139 6 gusting 15 18.9
2020-Sep-26 12:55 160 11 gusting 15 18.9
2020-Sep-26 12:50 162 8 gusting 15 18.9
2020-Sep-26 12:45 163 10 gusting 15 18.9
2020-Sep-26 12:40 148 9 gusting 14 19.4
2020-Sep-26 12:35 190 5 gusting 13 19.4
2020-Sep-26 12:30 196 8 gusting 14 19.4
2020-Sep-26 12:25 130 10 gusting 14 19.4
2020-Sep-26 12:20 163 7 gusting 13 20.0
2020-Sep-26 12:15 069 2 gusting 12 20.0
2020-Sep-26 12:10 151 6 gusting 12 19.4
2020-Sep-26 12:05 242 6 gusting 11 18.9
2020-Sep-26 12:00 143 6 gusting 11 19.4
2020-Sep-26 11:55 065 1 gusting 9 19.4
2020-Sep-26 11:50 234 2 gusting 9 20.0
2020-Sep-26 11:45 234 6 gusting 12 20.0
2020-Sep-26 11:40 305 5 gusting 12 19.4
2020-Sep-26 11:35 292 7 gusting 9 20.0
2020-Sep-26 11:30 278 5 gusting 7 19.4
2020-Sep-26 11:25 285 4 gusting 7 19.4
2020-Sep-26 11:20 182 2 gusting 13 18.9
2020-Sep-26 11:15 287 4 gusting 13 18.9
2020-Sep-26 11:10 326 5 gusting 11 18.9
2020-Sep-26 11:05 012 0 gusting 9 18.9
2020-Sep-26 11:00 250 4 gusting 12 18.9
2020-Sep-26 10:55 289 6 gusting 13 18.3
2020-Sep-26 10:50 306 6 gusting 13 18.3
2020-Sep-26 10:45 317 5 gusting 13 18.3
2020-Sep-26 10:40 294 6 gusting 14 18.3
2020-Sep-26 10:35 333 10 gusting 15 18.3
2020-Sep-26 10:30 327 11 gusting 15 18.3
2020-Sep-26 10:25 005 5 gusting 13 17.8
2020-Sep-26 10:20 321 7 gusting 11 17.8
2020-Sep-26 10:15 275 8 gusting 11 17.8
2020-Sep-26 10:10 017 3 gusting 14 17.8
2020-Sep-26 10:05 321 7 gusting 14 17.2
2020-Sep-26 10:00 314 10 gusting 14 17.2
2020-Sep-26 09:55 335 8 gusting 13 17.2
2020-Sep-26 09:50 309 6 gusting 11 17.2
2020-Sep-26 09:45 306 8 gusting 13 17.2
2020-Sep-26 09:40 346 6 gusting 13 16.7
2020-Sep-26 09:35 039 5 gusting 15 16.7
2020-Sep-26 09:30 020 7 gusting 15 16.7
2020-Sep-26 09:25 327 6 gusting 12 16.7
2020-Sep-26 09:20 019 4 gusting 12 16.7
2020-Sep-26 09:15 348 7 gusting 15 16.1
2020-Sep-26 09:10 355 6 gusting 15 16.1
2020-Sep-26 09:05 309 7 gusting 15 15.6
2020-Sep-26 09:00 355 10 gusting 16 15.6
2020-Sep-26 08:55 330 13 gusting 16 15.6
2020-Sep-26 08:50 332 7 gusting 16 15.6
2020-Sep-26 08:45 355 9 gusting 16 15.0
2020-Sep-26 08:40 360 12 gusting 16 15.0
2020-Sep-26 08:35 344 10 gusting 16 15.0
2020-Sep-26 08:30 342 10 gusting 16 15.0
2020-Sep-26 08:25 030 11 gusting 14 14.4
2020-Sep-26 08:20 342 8 gusting 13 14.4
2020-Sep-26 08:15 340 6 gusting 15 14.4
2020-Sep-26 08:10 360 10 gusting 15 13.9
2020-Sep-26 08:05 328 9 gusting 15 13.9
2020-Sep-26 08:00 342 8 gusting 15 13.9
2020-Sep-26 07:55 345 9 gusting 16 13.3
2020-Sep-26 07:50 079 10 gusting 16 13.3
2020-Sep-26 07:45 005 6 gusting 15 13.3
2020-Sep-26 07:40 333 8 gusting 14 13.3
2020-Sep-26 07:35 355 7 gusting 16 13.3
2020-Sep-26 07:30 036 9 gusting 16 12.8
2020-Sep-26 07:25 341 11 gusting 15 12.8
2020-Sep-26 07:20 351 11 gusting 14 12.8
2020-Sep-26 07:15 329 8 gusting 13 12.8
2020-Sep-26 07:10 308 7 gusting 15 12.8
2020-Sep-26 07:05 348 8 gusting 15 12.8
2020-Sep-26 07:00 345 10 gusting 15 12.2
2020-Sep-26 06:55 360 11 gusting 19 12.2
2020-Sep-26 06:50 327 12 gusting 19 12.2
2020-Sep-26 06:45 350 9 gusting 17 12.2
2020-Sep-26 06:40 005 7 gusting 16 12.2
2020-Sep-26 06:35 355 10 gusting 15 12.2
2020-Sep-26 06:30 026 7 gusting 19 12.2
2020-Sep-26 06:25 337 13 gusting 19 12.2
2020-Sep-26 06:20 325 13 gusting 19 12.2
2020-Sep-26 06:15 323 11 gusting 17 12.2
2020-Sep-26 06:10 318 10 gusting 19 12.2
2020-Sep-26 06:05 325 13 gusting 19 12.2
2020-Sep-26 06:00 338 12 gusting 16 12.2
2020-Sep-26 05:55 327 10 gusting 16 12.2
2020-Sep-26 05:50 336 7 gusting 15 12.2
2020-Sep-26 05:45 332 9 gusting 22 12.2
2020-Sep-26 05:40 321 14 gusting 22 12.2
2020-Sep-26 05:35 327 11 gusting 17 12.2
2020-Sep-26 05:30 348 12 gusting 17 12.2
2020-Sep-26 05:25 355 9 gusting 18 12.2
2020-Sep-26 05:20 338 9 gusting 18 12.2
2020-Sep-26 05:15 323 7 gusting 14 12.2
2020-Sep-26 05:10 337 11 gusting 14 12.2
2020-Sep-26 05:05 346 10 gusting 16 12.2
2020-Sep-26 05:00 325 11 gusting 18 12.2
2020-Sep-26 04:55 331 11 gusting 18 12.2
2020-Sep-26 04:50 325 10 gusting 16 12.2
2020-Sep-26 04:45 338 11 gusting 17 12.2
2020-Sep-26 04:40 341 11 gusting 17 12.2
2020-Sep-26 04:35 339 7 gusting 16 12.2
2020-Sep-26 04:30 334 11 gusting 16 12.2
2020-Sep-26 04:25 325 10 gusting 13 12.2
2020-Sep-26 04:20 355 9 gusting 19 12.2
2020-Sep-26 04:15 320 6 gusting 19 12.2
2020-Sep-26 04:10 331 11 gusting 15 12.2
2020-Sep-26 04:05 325 6 gusting 13 12.2
2020-Sep-26 04:00 335 7 gusting 13 12.2
2020-Sep-26 03:55 329 9 gusting 13 12.2
2020-Sep-26 03:50 360 6 gusting 13 12.2
2020-Sep-26 03:45 314 8 gusting 13 12.2
2020-Sep-26 03:40 332 6 gusting 12 12.2
2020-Sep-26 03:35 329 4 gusting 12 12.2
2020-Sep-26 03:30 338 5 gusting 13 12.8
2020-Sep-26 03:25 297 8 gusting 13 12.8
2020-Sep-26 03:20 327 5 gusting 10 12.8
2020-Sep-26 03:15 331 7 gusting 12 12.8
2020-Sep-26 03:10 335 8 gusting 12 12.8
2020-Sep-26 03:05 314 4 gusting 17 12.8
2020-Sep-26 03:00 313 7 gusting 17 12.8
2020-Sep-26 02:55 325 7 gusting 13 12.2
2020-Sep-26 02:50 337 5 gusting 15 12.8
2020-Sep-26 02:45 327 9 gusting 15 12.8
2020-Sep-26 02:40 326 7 gusting 15 12.8
2020-Sep-26 02:35 317 8 gusting 17 12.8
2020-Sep-26 02:30 328 11 gusting 17 12.8
2020-Sep-26 02:25 341 11 gusting 17 12.8
2020-Sep-26 02:20 315 11 gusting 17 12.8
2020-Sep-26 02:15 312 7 gusting 18 12.8
2020-Sep-26 02:10 316 10 gusting 18 12.8
2020-Sep-26 02:05 332 7 gusting 16 12.8
2020-Sep-26 02:00 355 8 gusting 17 12.8
2020-Sep-26 01:55 342 11 gusting 19 12.8
2020-Sep-26 01:50 332 12 gusting 19 12.8
2020-Sep-26 01:45 319 11 gusting 17 12.8
2020-Sep-26 01:40 340 9 gusting 17 12.8
2020-Sep-26 01:35 329 13 gusting 20 13.3
2020-Sep-26 01:30 332 15 gusting 20 13.3
2020-Sep-26 01:25 339 10 gusting 19 12.8
2020-Sep-26 01:20 304 11 gusting 18 12.8
2020-Sep-26 01:15 315 11 gusting 19 12.8
2020-Sep-26 01:10 323 11 gusting 19 13.3
2020-Sep-26 01:05 336 13 gusting 19 13.3
2020-Sep-26 01:00 321 10 gusting 17 12.8
2020-Sep-26 00:55 355 8 gusting 15 12.8
2020-Sep-26 00:50 324 8 gusting 15 12.8
2020-Sep-26 00:45 314 9 gusting 18 12.8
2020-Sep-26 00:40 334 13 gusting 18 13.3
2020-Sep-26 00:35 313 12 gusting 16 13.3
2020-Sep-26 00:25 315 16 gusting 23 13.3
2020-Sep-26 00:20 321 15 gusting 20 13.3
2020-Sep-26 00:15 302 16 gusting 19 13.3
2020-Sep-26 00:10 317 14 gusting 21 13.3
2020-Sep-26 00:05 312 15 gusting 21 13.3
2020-Sep-26 00:00 318 15 gusting 20 13.3
2020-Sep-25 23:55 319 14 gusting 19 13.3
2020-Sep-25 23:50 315 15 gusting 19 13.3
2020-Sep-25 23:45 316 13 gusting 22 13.3
2020-Sep-25 23:40 309 19 gusting 22 13.3
2020-Sep-25 23:35 323 15 gusting 21 13.3
2020-Sep-25 23:30 317 11 gusting 19 13.3
2020-Sep-25 23:25 333 12 gusting 18 13.9
2020-Sep-25 23:20 321 13 gusting 21 13.9
2020-Sep-25 23:15 306 16 gusting 24 13.9
2020-Sep-25 23:10 296 11 gusting 24 13.9
2020-Sep-25 23:05 291 13 gusting 22 13.9
2020-Sep-25 23:00 324 17 gusting 22 13.9
2020-Sep-25 22:55 312 13 gusting 19 13.9
2020-Sep-25 22:50 315 14 gusting 20 13.9
2020-Sep-25 22:45 299 14 gusting 21 13.9
2020-Sep-25 22:40 306 14 gusting 21 13.9
2020-Sep-25 22:35 323 17 gusting 21 13.9
2020-Sep-25 22:30 284 12 gusting 19 13.9
2020-Sep-25 22:25 315 13 gusting 19 14.4
2020-Sep-25 22:20 311 14 gusting 19 14.4
2020-Sep-25 22:15 330 14 gusting 19 14.4
2020-Sep-25 22:10 321 11 gusting 22 14.4
2020-Sep-25 22:05 324 13 gusting 22 14.4
2020-Sep-25 22:00 340 13 gusting 15 14.4
2020-Sep-25 21:55 302 8 gusting 14 14.4
2020-Sep-25 21:50 320 9 gusting 14 14.4
2020-Sep-25 21:45 342 10 gusting 13 14.4
2020-Sep-25 21:40 360 5 gusting 12 14.4
2020-Sep-25 21:35 340 6 gusting 12 14.4
2020-Sep-25 21:30 326 9 gusting 14 14.4
2020-Sep-25 21:25 341 8 gusting 13 14.4
2020-Sep-25 21:20 333 6 gusting 12 14.4
2020-Sep-25 21:15 327 6 gusting 13 14.4
2020-Sep-25 21:10 341 6 gusting 16 15.0
2020-Sep-25 21:05 331 6 gusting 16 15.0
2020-Sep-25 21:00 334 6 gusting 13 15.0
2020-Sep-25 20:55 022 8 gusting 13 15.0
2020-Sep-25 20:50 332 3 gusting 15 15.0
2020-Sep-25 20:45 013 10 gusting 15 15.0
2020-Sep-25 20:40 355 6 gusting 17 15.0
2020-Sep-25 20:35 329 10 gusting 22 15.6
2020-Sep-25 20:30 337 13 gusting 23 15.6
2020-Sep-25 20:25 333 10 gusting 23 15.6
2020-Sep-25 20:20 327 13 gusting 24 15.6
2020-Sep-25 20:15 355 14 gusting 24 15.6
2020-Sep-25 20:10 323 14 gusting 20 15.6
2020-Sep-25 20:05 335 13 gusting 22 15.6
2020-Sep-25 20:00 351 10 gusting 22 15.6
2020-Sep-25 19:55 360 14 gusting 22 15.6
2020-Sep-25 19:50 296 14 gusting 22 16.1
2020-Sep-25 19:45 317 16 gusting 29 16.1
2020-Sep-25 19:40 319 14 gusting 29 16.1
2020-Sep-25 19:35 307 18 gusting 26 16.1
2020-Sep-25 19:30 327 18 gusting 23 16.1
2020-Sep-25 19:25 309 13 gusting 23 16.1
2020-Sep-25 19:20 294 14 gusting 24 16.1
2020-Sep-25 19:15 342 13 gusting 25 16.1
2020-Sep-25 19:10 322 14 gusting 31 16.7
2020-Sep-25 19:05 315 20 gusting 31 16.7
2020-Sep-25 19:00 355 12 gusting 26 16.7
2020-Sep-25 18:55 312 19 gusting 26 16.7
2020-Sep-25 18:50 286 18 gusting 26 16.7
2020-Sep-25 18:45 338 19 gusting 26 16.7
2020-Sep-25 18:40 296 16 gusting 26 17.2
2020-Sep-25 18:35 278 14 gusting 25 17.2
2020-Sep-25 18:30 293 19 gusting 27 17.2
2020-Sep-25 18:25 313 19 gusting 27 17.2
2020-Sep-25 18:20 288 15 gusting 25 17.2
2020-Sep-25 18:15 320 13 gusting 23 17.2
2020-Sep-25 18:10 295 13 gusting 27 17.2
2020-Sep-25 18:05 350 15 gusting 27 17.2
2020-Sep-25 18:00 299 19 gusting 27 17.2
2020-Sep-25 17:55 325 13 gusting 31 17.8
2020-Sep-25 17:50 324 19 gusting 31 17.8
2020-Sep-25 17:45 336 20 gusting 33 17.8
2020-Sep-25 17:40 335 17 gusting 33 17.8
2020-Sep-25 17:35 295 17 gusting 27 17.8
2020-Sep-25 17:30 323 13 gusting 26 17.8
2020-Sep-25 17:25 310 13 gusting 25 17.8
2020-Sep-25 17:20 296 18 gusting 26 17.8
2020-Sep-25 17:15 336 19 gusting 26 18.3
2020-Sep-25 17:10 317 13 gusting 28 18.3
2020-Sep-25 17:05 325 16 gusting 28 18.3
2020-Sep-25 17:00 288 10 gusting 24 18.9
2020-Sep-25 16:55 259 14 gusting 28 18.9
2020-Sep-25 16:50 321 16 gusting 28 18.9
2020-Sep-25 16:45 292 17 gusting 28 18.9
2020-Sep-25 16:40 259 20 gusting 28 18.9
2020-Sep-25 16:35 305 17 gusting 28 18.9
2020-Sep-25 16:30 310 19 gusting 28 18.9
2020-Sep-25 16:25 319 17 gusting 28 18.9
2020-Sep-25 16:20 315 13 gusting 28 19.4
2020-Sep-25 16:15 269 13 gusting 25 19.4
2020-Sep-25 16:10 329 16 gusting 25 18.9
2020-Sep-25 16:05 325 16 gusting 27 18.9
2020-Sep-25 16:00 304 19 gusting 28 18.9
2020-Sep-25 15:55 296 14 gusting 33 19.4
2020-Sep-25 15:50 293 24 gusting 33 18.9
2020-Sep-25 15:45 335 19 gusting 27 19.4
2020-Sep-25 15:40 318 13 gusting 30 19.4
2020-Sep-25 15:35 312 21 gusting 30 20.0
2020-Sep-25 15:30 306 19 gusting 27 20.0
2020-Sep-25 15:25 327 19 gusting 28 20.0
2020-Sep-25 15:20 312 14 gusting 28 20.0
2020-Sep-25 15:15 317 15 gusting 28 20.0
2020-Sep-25 15:10 294 16 gusting 28 20.0
2020-Sep-25 15:05 317 14 gusting 29 20.0
2020-Sep-25 15:00 319 19 gusting 29 20.0
2020-Sep-25 14:50 265 16 gusting 26 20.6
2020-Sep-25 14:45 327 13 gusting 29 20.0
2020-Sep-25 14:40 319 19 gusting 31 20.0
2020-Sep-25 14:35 306 21 gusting 32 20.0
2020-Sep-25 14:30 309 23 gusting 28 20.0
2020-Sep-25 14:25 342 16 gusting 26 20.0
2020-Sep-25 14:20 355 20 gusting 33 20.0
2020-Sep-25 14:15 313 20 gusting 33 20.0
2020-Sep-25 14:10 328 21 gusting 29 20.0
2020-Sep-25 14:05 323 19 gusting 34 20.0
2020-Sep-25 14:00 312 18 gusting 34 20.0
2020-Sep-25 13:55 327 16 gusting 33 20.0
2020-Sep-25 13:50 322 24 gusting 33 19.4
2020-Sep-25 13:45 294 20 gusting 33 20.0
2020-Sep-25 13:40 319 19 gusting 33 20.0
2020-Sep-25 13:35 341 19 gusting 30 20.0
2020-Sep-25 13:30 333 22 gusting 30 20.0
2020-Sep-25 13:25 310 22 gusting 27 20.6
2020-Sep-25 13:20 318 15 gusting 25 20.0
2020-Sep-25 13:15 355 16 gusting 25 20.0
2020-Sep-25 13:10 281 13 gusting 26 20.0
2020-Sep-25 13:05 344 17 gusting 31 20.0
2020-Sep-25 13:00 300 18 gusting 31 19.4
2020-Sep-25 12:55 313 19 gusting 34 19.4
2020-Sep-25 12:50 342 21 gusting 34 19.4
2020-Sep-25 12:45 348 19 gusting 33 20.0
2020-Sep-25 12:40 304 22 gusting 33 19.4
2020-Sep-25 12:35 333 21 gusting 33 19.4
2020-Sep-25 12:30 319 21 gusting 29 20.0
2020-Sep-25 12:25 329 19 gusting 34 20.0
2020-Sep-25 12:20 321 19 gusting 34 19.4
2020-Sep-25 12:15 300 15 gusting 34 20.0
2020-Sep-25 12:10 338 19 gusting 34 19.4
2020-Sep-25 12:05 320 24 gusting 33 19.4
2020-Sep-25 12:00 337 23 gusting 33 19.4
2020-Sep-25 11:55 325 21 gusting 29 19.4
2020-Sep-25 11:50 355 19 gusting 36 19.4
2020-Sep-25 11:45 288 15 gusting 36 19.4
2020-Sep-25 11:40 329 26 gusting 35 19.4
2020-Sep-25 11:35 355 21 gusting 30 19.4
2020-Sep-25 11:30 296 21 gusting 31 19.4
2020-Sep-25 11:25 298 20 gusting 31 19.4
2020-Sep-25 11:20 340 18 gusting 34 19.4
2020-Sep-25 11:15 328 18 gusting 34 19.4
2020-Sep-25 11:10 330 22 gusting 30 19.4
2020-Sep-25 11:05 313 16 gusting 30 19.4
2020-Sep-25 11:00 333 23 gusting 30 19.4
2020-Sep-25 10:55 302 16 gusting 29 19.4
2020-Sep-25 10:50 327 16 gusting 31 19.4
2020-Sep-25 10:45 302 26 gusting 31 19.4
2020-Sep-25 10:40 322 21 gusting 28 19.4
2020-Sep-25 10:35 321 18 gusting 26 19.4
2020-Sep-25 10:30 311 14 gusting 27 19.4
2020-Sep-25 10:25 318 15 gusting 33 19.4
2020-Sep-25 10:20 341 12 gusting 33 19.4
2020-Sep-25 10:15 344 22 gusting 36 18.9
2020-Sep-25 10:10 316 22 gusting 36 18.3
2020-Sep-25 10:05 324 24 gusting 36 18.9
2020-Sep-25 10:00 330 22 gusting 33 18.9
2020-Sep-25 09:55 322 23 gusting 33 18.9
2020-Sep-25 09:50 320 22 gusting 34 18.3
2020-Sep-25 09:45 329 23 gusting 34 18.3
2020-Sep-25 09:40 309 26 gusting 33 18.9
2020-Sep-25 09:35 333 17 gusting 33 18.9
2020-Sep-25 09:30 312 25 gusting 33 18.3
2020-Sep-25 09:25 301 21 gusting 37 18.3
2020-Sep-25 09:20 355 21 gusting 37 18.3
2020-Sep-25 09:15 319 22 gusting 29 18.3
2020-Sep-25 09:10 324 23 gusting 28 18.3
2020-Sep-25 09:05 319 20 gusting 28 18.3
2020-Sep-25 09:00 338 19 gusting 28 18.3
2020-Sep-25 08:55 329 19 gusting 30 18.3
2020-Sep-25 08:50 320 19 gusting 30 18.3
2020-Sep-25 08:45 335 21 gusting 33 18.3
2020-Sep-25 08:40 325 19 gusting 27 18.3
2020-Sep-25 08:35 323 19 gusting 30 18.3
2020-Sep-25 08:30 332 25 gusting 30 18.3
2020-Sep-25 07:25 302 12 gusting 24 17.8
2020-Sep-25 07:20 320 15 gusting 33 17.8
2020-Sep-25 07:15 347 18 gusting 35 17.8
2020-Sep-25 07:10 320 20 gusting 34 17.8
2020-Sep-25 07:05 312 22 gusting 34 17.8
2020-Sep-25 07:00 299 20 gusting 34 17.8
2020-Sep-25 06:55 293 18 gusting 29 17.8
2020-Sep-25 06:50 300 20 gusting 29 17.8
2020-Sep-25 06:45 329 19 gusting 28 17.8
2020-Sep-25 06:40 312 16 gusting 29 17.8
2020-Sep-25 06:35 342 12 gusting 29 18.3
2020-Sep-25 06:30 347 13 gusting 22 18.3
2020-Sep-25 06:25 313 15 gusting 26 18.3
2020-Sep-25 06:20 338 17 gusting 26 18.3
2020-Sep-25 06:15 333 15 gusting 22 18.9
2020-Sep-25 06:10 331 13 gusting 28 18.9
2020-Sep-25 06:05 306 12 gusting 28 18.9
2020-Sep-25 06:00 331 15 gusting 24 18.9
2020-Sep-25 05:55 280 16 gusting 24 18.9
2020-Sep-25 05:50 312 16 gusting 23 18.9
2020-Sep-25 05:45 306 10 gusting 26 18.9
2020-Sep-25 05:40 315 18 gusting 28 18.9
2020-Sep-25 05:35 315 17 gusting 28 18.9
2020-Sep-25 05:30 328 8 gusting 16 18.9
2020-Sep-25 05:25 332 9 gusting 16 18.9
2020-Sep-25 05:20 292 5 gusting 17 18.9
2020-Sep-25 05:15 317 6 gusting 19 18.9
2020-Sep-25 05:10 214 5 gusting 19 19.4
2020-Sep-25 05:05 298 10 gusting 16 18.9
2020-Sep-25 05:00 279 8 gusting 13 18.9
2020-Sep-25 04:55 301 4 gusting 13 18.9
2020-Sep-25 04:50 348 10 gusting 13 19.4
2020-Sep-25 04:45 298 6 gusting 19 19.4
2020-Sep-25 04:40 299 14 gusting 18 19.4
2020-Sep-25 04:35 314 8 gusting 15 19.4
2020-Sep-25 04:30 307 12 gusting 17 19.4
2020-Sep-25 04:25 311 13 gusting 22 19.4
2020-Sep-25 04:20 311 11 gusting 23 19.4
2020-Sep-25 04:15 323 11 gusting 24 19.4
2020-Sep-25 04:10 306 13 gusting 23 19.4
2020-Sep-25 04:05 325 11 gusting 22 19.4
2020-Sep-25 04:00 337 15 gusting 22 19.4
2020-Sep-25 03:55 333 15 gusting 20 19.4
2020-Sep-25 03:50 301 12 gusting 18 19.4
2020-Sep-25 03:45 329 12 gusting 21 19.4
2020-Sep-25 03:40 333 12 gusting 21 19.4
2020-Sep-25 03:35 309 9 gusting 16 19.4
2020-Sep-25 03:30 316 11 gusting 15 20.0
2020-Sep-25 03:25 317 10 gusting 16 20.0
2020-Sep-25 03:20 339 12 gusting 16 20.0
2020-Sep-25 03:15 317 10 gusting 14 19.4
2020-Sep-25 03:10 304 10 gusting 16 19.4
2020-Sep-25 03:05 330 6 gusting 16 19.4
2020-Sep-25 03:00 041 8 gusting 18 19.4
2020-Sep-25 02:55 325 8 gusting 18 20.0
2020-Sep-25 02:50 324 9 gusting 12 19.4
2020-Sep-25 02:45 331 5 gusting 9 19.4
2020-Sep-25 02:40 346 5 gusting 11 19.4
2020-Sep-25 02:35 336 6 gusting 9 20.0
2020-Sep-25 02:30 342 5 gusting 10 20.0
2020-Sep-25 02:25 308 7 gusting 12 20.0
2020-Sep-25 02:20 317 7 gusting 12 20.0
2020-Sep-25 02:15 327 5 gusting 10 20.0
2020-Sep-25 02:10 323 5 gusting 10 20.0
2020-Sep-25 02:05 313 6 gusting 10 20.0
2020-Sep-25 02:00 340 7 gusting 13 20.6
2020-Sep-25 01:55 309 7 gusting 13 20.6
2020-Sep-25 01:50 326 8 gusting 13 20.6
2020-Sep-25 01:45 319 10 gusting 13 20.6
2020-Sep-25 01:40 355 7 gusting 13 20.6
2020-Sep-25 01:35 341 8 gusting 12 20.6
2020-Sep-25 01:30 326 8 gusting 13 21.1
2020-Sep-25 01:25 340 8 gusting 13 21.1
2020-Sep-25 01:20 311 9 gusting 12 21.1
2020-Sep-25 01:15 318 6 gusting 14 21.1
2020-Sep-25 01:10 315 8 gusting 14 21.1
2020-Sep-25 01:05 331 6 gusting 10 21.1
2020-Sep-25 01:00 304 5 gusting 12 21.1
2020-Sep-25 00:55 312 8 gusting 12 21.1
2020-Sep-25 00:50 300 6 gusting 9 21.1
2020-Sep-25 00:45 275 5 gusting 9 21.1
2020-Sep-25 00:40 309 3 gusting 8 21.1
2020-Sep-25 00:35 316 3 gusting 10 21.1
2020-Sep-25 00:30 325 3 gusting 11 21.7
2020-Sep-25 00:25 309 4 gusting 11 21.7
2020-Sep-25 00:20 321 5 gusting 11 21.7
2020-Sep-25 00:15 309 6 gusting 13 21.7
2020-Sep-25 00:10 319 6 gusting 9 21.1
2020-Sep-25 00:05 302 4 gusting 9 21.1
2020-Sep-25 00:00 009 2 gusting 5 21.1
2020-Sep-24 23:55 020 3 gusting 5 21.1
2020-Sep-24 23:50 314 3 gusting 9 21.7
2020-Sep-24 23:45 290 4 gusting 9 21.7
2020-Sep-24 23:40 275 4 gusting 10 21.1
2020-Sep-24 23:35 342 3 gusting 10 21.1
2020-Sep-24 23:30 248 3 gusting 9 21.1
2020-Sep-24 23:25 259 3 gusting 9 20.6
2020-Sep-24 23:20 331 0 gusting 4 20.0
2020-Sep-24 23:15 355 0 gusting 4 20.0
2020-Sep-24 23:10 013 2 gusting 4 20.0
2020-Sep-24 23:05 011 2 gusting 4 20.0
2020-Sep-24 23:00 034 1 gusting 5 20.0
2020-Sep-24 22:55 009 1 gusting 6 20.0
2020-Sep-24 22:50 053 4 gusting 6 20.0
2020-Sep-24 22:45 044 3 gusting 6 19.4
2020-Sep-24 22:40 044 3 gusting 6 20.0
2020-Sep-24 22:35 079 19.4
2020-Sep-24 22:30 036 19.4
2020-Sep-24 22:25 045 2 gusting 3 19.4
2020-Sep-24 22:20 030 2 gusting 4 20.0
2020-Sep-24 22:16 005 2 gusting 4 20.0
2020-Sep-24 22:10 040 1 gusting 3 20.0
2020-Sep-24 22:05 024 1 gusting 4 20.0
2020-Sep-24 22:00 015 2 gusting 4 20.0
2020-Sep-24 21:55 005 2 gusting 5 20.0
2020-Sep-24 21:50 017 2 gusting 5 20.0
2020-Sep-24 21:45 016 3 gusting 6 20.0
2020-Sep-24 21:40 058 2 gusting 6 20.0
2020-Sep-24 21:35 057 5 gusting 7 20.0
2020-Sep-24 21:30 046 3 gusting 7 20.6
2020-Sep-24 21:25 077 1 gusting 2 20.6
2020-Sep-24 21:20 088 20.6
2020-Sep-24 21:15 082 0 gusting 5 20.6
2020-Sep-24 21:10 063 1 gusting 3 20.6
2020-Sep-24 21:05 059 0 gusting 3 20.6
2020-Sep-24 21:00 049 1 gusting 6 20.6
2020-Sep-24 20:55 080 3 gusting 6 20.6
2020-Sep-24 20:50 081 2 gusting 5 20.6
2020-Sep-24 20:45 022 1 gusting 5 20.6
2020-Sep-24 20:40 346 3 gusting 4 20.6
2020-Sep-24 20:35 026 1 gusting 3 20.6
2020-Sep-24 20:30 020 2 gusting 3 20.6
2020-Sep-24 20:25 055 2 gusting 3 20.6
2020-Sep-24 20:20 032 0 gusting 2 20.6
2020-Sep-24 20:15 028 1 gusting 4 21.1
2020-Sep-24 20:10 030 1 gusting 6 21.1
2020-Sep-24 20:05 053 3 gusting 6 21.1
2020-Sep-24 20:00 011 1 gusting 4 21.1
2020-Sep-24 19:55 140 1 gusting 5 21.7
2020-Sep-24 19:50 169 4 gusting 5 21.7
2020-Sep-24 19:45 119 0 gusting 2 21.7
2020-Sep-24 19:40 101 0 gusting 2 21.7
2020-Sep-24 19:35 104 0 gusting 3 21.7
2020-Sep-24 19:30 101 1 gusting 3 21.7
2020-Sep-24 19:25 092 1 gusting 3 21.7
2020-Sep-24 19:20 123 21.7
2020-Sep-24 19:15 122 21.7
2020-Sep-24 19:10 123 0 gusting 2 21.7
2020-Sep-24 19:05 163 0 gusting 4 21.7
2020-Sep-24 19:00 167 2 gusting 4 21.7
2020-Sep-24 18:55 140 21.7
2020-Sep-24 18:50 138 21.7
2020-Sep-24 18:45 144 21.7
2020-Sep-24 18:40 157 2 gusting 6 21.7
2020-Sep-24 18:35 132 2 gusting 5 22.2
2020-Sep-24 18:30 147 3 gusting 4 22.2
2020-Sep-24 18:25 139 2 gusting 4 22.2
2020-Sep-24 18:20 140 1 gusting 4 22.2
2020-Sep-24 18:15 187 1 gusting 3 22.2
2020-Sep-24 18:10 202 22.2
2020-Sep-24 18:05 207 0 gusting 6 22.2
2020-Sep-24 18:00 185 1 gusting 5 22.2